Glennallen, AK

2:29 AM AKST on February 22, 2017 (GMT -0900)
Gulkana

Weather History for PAGK - September, 2013

Change the Weather History Date:

Monday, September 30, 2013

  Actual Average Record
Temperature  
Mean Temperature 34 °F -  
Max Temperature 46 °F 47 °F 63 °F (1954)
Min Temperature 23 °F 27 °F 13 °F (1974)
Degree Days  
Heating Degree Days 30    
Moisture  
Dew Point 26 °F    
Average Humidity 74    
Maximum Humidity 96    
Minimum Humidity 41    
Precipitation  
Precipitation 0.00 in - - ()
Sea Level Pressure  
Sea Level Pressure 29.51 in    
Wind  
Wind Speed 3 mph (North)    
Max Wind Speed 6 mph    
Max Gust Speed -    
Visibility 10 miles    
Events      
Averages and records for this station are not official NWS values.
T = Trace of Precipitation, MM = Missing Value Source: NWS Daily Summary

Daily Weather History Graph

Daily Weather History Graph

Search for Another Location

Airport or City:

Trip Planner

Search our weather history database for the weather conditions in past years. The results will help you decide how hot, cold, wet, or windy it might be!

Date:

Astronomy

Sep. 30, 2013 Rise Set
Actual Time 7:47 AM AKDT 7:14 PM AKDT
Civil Twilight 7:03 AM AKDT 7:58 PM AKDT
Nautical Twilight 6:10 AM AKDT 8:50 PM AKDT
Astronomical Twilight 5:14 AM AKDT 9:46 PM AKDT
Moon 2:28 AM AKDT (9/30) 5:44 PM AKDT (9/30)
Length of Visible Light 12h 55m
Length of Day
11h 26m
Waning Crescent, 18% of the Moon is Illuminated
Sep 30
Waning Crescent
Oct 4
New
Oct 11
First Quarter
Oct 18
Full
Oct 26
Last Quarter

Hourly Weather History & Observations

Time (AKDT) Temp. Windchill Dew Point Humidity Pressure Visibility Wind Dir Wind Speed Gust Speed Precip Events Conditions
12:53 AM 28.0 °F 22.8 °F 25.0 °F 88% 29.37 in 10.0 mi North 4.6 mph - N/A   Clear
1:53 AM 26.1 °F - 23.0 °F 88% 29.38 in 10.0 mi Calm Calm - N/A   Clear
2:53 AM 26.1 °F 19.4 °F 23.0 °F 88% 29.39 in 10.0 mi NNE 5.8 mph - N/A   Clear
3:53 AM 24.1 °F 19.7 °F 21.0 °F 88% 29.40 in 10.0 mi West 3.5 mph - N/A   Clear
4:53 AM 25.0 °F 20.7 °F 23.0 °F 92% 29.41 in 10.0 mi ENE 3.5 mph - N/A   Clear
5:53 AM 28.0 °F 24.2 °F 25.0 °F 88% 29.43 in 10.0 mi NNW 3.5 mph - N/A   Clear
6:53 AM 27.0 °F - 25.0 °F 92% 29.44 in 10.0 mi Calm Calm - N/A   Scattered Clouds
7:53 AM 25.0 °F - 24.1 °F 96% 29.47 in 10.0 mi Calm Calm - N/A   Clear
8:53 AM 26.1 °F - 23.0 °F 88% 29.49 in 10.0 mi Calm Calm - N/A   Clear
9:53 AM 32.0 °F 28.7 °F 28.0 °F 85% 29.49 in 10.0 mi South 3.5 mph - N/A   Partly Cloudy
10:53 AM 35.1 °F 30.1 °F 28.0 °F 76% 29.51 in 10.0 mi East 5.8 mph - N/A   Clear
11:53 AM 41.0 °F - 28.0 °F 60% 29.52 in 10.0 mi Calm Calm - N/A   Mostly Cloudy
12:53 PM 42.1 °F - 28.0 °F 58% 29.52 in 10.0 mi Calm Calm - N/A   Clear
1:53 PM 43.0 °F - 28.0 °F 56% 29.53 in 10.0 mi Calm Calm - N/A   Clear
2:53 PM 44.1 °F - 28.0 °F 53% 29.53 in 10.0 mi Calm Calm - N/A   Clear
3:53 PM 45.0 °F 43.5 °F 28.9 °F 53% 29.54 in 10.0 mi NE 3.5 mph - N/A   Overcast
4:53 PM 45.0 °F - 28.9 °F 53% 29.54 in 10.0 mi Calm Calm - N/A   Mostly Cloudy
5:53 PM 44.1 °F - 28.9 °F 55% 29.55 in 10.0 mi Calm Calm - N/A   Clear
6:53 PM 43.0 °F - 30.0 °F 60% 29.57 in 10.0 mi Calm Calm - N/A   Overcast
7:53 PM 37.0 °F - 30.0 °F 76% 29.59 in 10.0 mi Calm Calm - N/A   Overcast
8:53 PM 37.0 °F 33.3 °F 28.0 °F 70% 29.60 in 10.0 mi NNW 4.6 mph - N/A   Overcast
9:53 PM 35.1 °F 31.0 °F 27.0 °F 72% 29.61 in 10.0 mi NNW 4.6 mph - N/A   Scattered Clouds
10:53 PM 32.0 °F - 26.1 °F 79% 29.62 in 10.0 mi Calm Calm - N/A   Overcast
11:53 PM 28.9 °F 25.2 °F 25.0 °F 85% 29.64 in 10.0 mi West 3.5 mph - N/A   Clear